[[{"header":{"parameterUnit":"m.s-1","parameterCategory":1,"la1":30.2991,"la2":30.254,"lo1":-89.0895,"lo2":-89.0444,"dy":0.0017,"dx":0.0017,"nx":28,"ny":28,"refTime":"2025-11-13T03:00:00:Z","depth":0,"parameterNumber":2,"parameterNumberName":"U-component_of_WINDS"},"data":[0,0,0,0,0,0,0,0,0,0,0,0,0,0,0,0,0,0,0,0,0,0,0,0,0,0,0,0,0,0,0,0,0,0,0,0,0,0,0,0,0,0,0,0,0,0,0,0,0,0,0,0,0,0,0,0,0,0,-0.2407,-0.2407,0,-0.2419,-0.2419,-0.2419,-0.2428,-0.2428,-0.2428,-0.2428,-0.244,-0.244,-0.2441,0,0,0,0,0,0,0,0,0,0,0,0,0,-0.239,-0.2391,-0.2407,-0.2407,-0.2407,-0.2419,-0.2419,-0.2419,-0.2428,-0.2428,-0.2428,-0.2428,-0.244,-0.244,-0.2441,0,0,0,0,0,0,0,0,0,0,0,0,0,-0.2399,-0.2391,-0.2407,-0.2413,-0.2413,-0.2419,-0.2419,-0.2419,-0.2428,-0.2428,-0.2428,-0.2428,-0.244,-0.244,-0.2441,-0.2441,0,0,-0.2442,-0.2442,0,0,0,0,0,0,0,0,-0.2399,-0.24,-0.2412,-0.2412,-0.2413,-0.2422,-0.2418,-0.2427,-0.2428,-0.2422,-0.2428,-0.2428,-0.2434,-0.2435,-0.2437,-0.2442,-0.2442,-0.2442,-0.2442,-0.2442,-0.2442,0,0,0,0,0,0,0,-0.2398,-0.24,-0.2411,-0.2412,-0.2413,-0.2415,-0.2416,-0.2419,-0.2427,-0.2423,-0.2423,-0.2425,-0.2434,-0.2437,-0.2437,-0.2442,-0.2442,-0.2442,-0.2443,-0.2443,-0.2448,-0.2448,0,0,0,0,0,0,-0.2397,-0.2399,-0.2411,-0.2412,-0.2406,-0.2415,-0.2416,-0.2419,-0.2427,-0.2429,-0.2425,-0.2425,-0.2436,-0.2437,-0.2438,-0.2439,-0.2442,-0.2443,-0.2443,-0.2448,-0.2448,-0.2448,0,0,0,0,0,0,-0.2396,-0.2398,-0.2411,-0.2406,-0.2407,-0.2415,-0.2418,-0.2419,-0.2421,-0.2429,-0.243,-0.2425,-0.2436,-0.2437,-0.244,-0.2439,-0.2443,-0.2443,-0.2448,-0.2448,-0.2448,-0.244,0,0,0,0,0,0,-0.2396,-0.2398,-0.2398,-0.2406,-0.2408,-0.2413,-0.2418,-0.2419,-0.2422,-0.2423,-0.243,-0.2431,-0.2436,-0.244,-0.2441,-0.244,-0.2444,-0.2448,-0.2448,-0.2448,-0.2441,-0.244,-0.2439,0,0,0,0,0,-0.2395,-0.2395,-0.2398,-0.2399,-0.2408,-0.2413,-0.2414,-0.242,-0.2422,-0.2422,-0.2427,-0.2431,-0.2439,-0.244,-0.2441,-0.244,-0.2448,-0.2448,-0.2448,-0.2441,-0.244,-0.2439,0,0,0,0,0,0,-0.2387,-0.2396,-0.2399,-0.2402,-0.2406,-0.2414,-0.2415,-0.2419,-0.2423,-0.2423,-0.243,-0.2432,-0.2434,-0.2437,-0.2438,-0.2441,-0.2444,-0.2444,-0.2439,-0.2438,-0.2437,-0.2436,-0.2444,0,0,0,0,0,-0.2386,-0.2389,-0.2397,-0.2398,-0.24,-0.2407,-0.2409,-0.2413,-0.2418,-0.242,-0.2425,-0.243,-0.2434,-0.2436,-0.244,-0.2441,-0.2443,-0.2441,-0.244,-0.244,-0.244,-0.2441,-0.244,-0.2447,-0.2447,-0.2447,0,0,-0.2383,-0.2388,-0.239,-0.2397,-0.2401,-0.2404,-0.2409,-0.2412,-0.2414,-0.2421,-0.2424,-0.2428,-0.2433,-0.2436,-0.2437,-0.2439,-0.2438,-0.244,-0.2439,-0.2439,-0.244,-0.244,-0.2439,-0.2447,-0.2447,-0.2447,0,0,-0.2379,-0.2383,-0.2385,-0.2389,-0.2395,-0.2399,-0.24,-0.2407,-0.241,-0.2413,-0.2418,-0.2421,-0.2427,-0.2431,-0.2433,-0.2431,-0.2434,-0.2432,-0.2428,-0.2429,-0.2428,-0.2428,-0.2426,-0.2426,-0.2431,-0.2431,-0.2431,0,-0.2374,-0.2379,-0.2385,-0.2388,-0.2391,-0.2397,-0.2399,-0.2402,-0.2409,-0.2411,-0.2413,-0.242,-0.2425,-0.2428,-0.2427,-0.2429,-0.243,-0.2431,-0.2428,-0.2427,-0.2427,-0.2426,-0.2425,-0.2431,-0.2431,-0.2431,-0.2431,0,-0.2373,-0.2376,-0.2377,-0.2383,-0.2386,-0.2388,-0.2395,-0.2397,-0.2401,-0.2405,-0.2408,-0.2413,-0.2418,-0.2419,-0.2423,-0.2423,-0.2423,-0.2426,-0.243,-0.2426,-0.2425,-0.2425,-0.2431,-0.2431,-0.2431,-0.2431,0,0,-0.2364,-0.2374,-0.2374,-0.2377,-0.2384,-0.2387,-0.2389,-0.2394,-0.2396,-0.24,-0.2402,-0.2407,-0.241,-0.2413,-0.2417,-0.2418,-0.2415,-0.2421,-0.2421,-0.2419,-0.2415,-0.2412,-0.2412,-0.2417,-0.2417,-0.2417,-0.2414,0,-0.2361,-0.2366,-0.2371,-0.2374,-0.2377,-0.2383,-0.2385,-0.239,-0.2394,-0.2396,-0.2401,-0.2404,-0.2408,-0.2409,-0.241,-0.2415,-0.2414,-0.2415,-0.2419,-0.2419,-0.2417,-0.2411,-0.2409,-0.2406,-0.2414,-0.2414,-0.2414,0,-0.2358,-0.2362,-0.2365,-0.2372,-0.2374,-0.2375,-0.238,-0.2383,-0.2388,-0.2391,-0.2394,-0.2399,-0.2401,-0.2404,-0.2407,-0.2408,-0.241,-0.2412,-0.2412,-0.2413,-0.2416,-0.2411,-0.2405,-0.2404,-0.2413,-0.2413,-0.2413,0,-0.2351,-0.2358,-0.236,-0.2363,-0.2371,-0.2372,-0.2375,-0.2381,-0.2383,-0.2387,-0.2389,-0.2393,-0.2395,-0.2398,-0.2404,-0.2405,-0.2406,-0.241,-0.2409,-0.2408,-0.2408,-0.2408,-0.2402,-0.241,-0.241,-0.241,-0.241,0,-0.2347,-0.2349,-0.2357,-0.2359,-0.2361,-0.2367,-0.2369,-0.2373,-0.2377,-0.2379,-0.2385,-0.2387,-0.2394,-0.2397,-0.2401,-0.2403,-0.2404,-0.2406,-0.2407,-0.2405,-0.2405,-0.2407,-0.2407,-0.241,-0.241,-0.241,-0.241,0,-0.234,-0.2346,-0.2349,-0.2356,-0.2358,-0.2359,-0.2365,-0.2367,-0.2371,-0.2374,-0.2375,-0.2382,-0.2385,-0.2391,-0.2396,-0.2399,-0.24,-0.2402,-0.2398,-0.2399,-0.2397,-0.2397,-0.2391,-0.239,-0.2399,-0.2399,-0.2399,0,-0.2337,-0.2338,-0.2346,-0.2348,-0.2351,-0.2354,-0.2357,-0.2363,-0.2365,-0.2371,-0.2372,-0.2376,-0.2379,-0.2384,-0.2389,-0.2393,-0.2395,-0.2393,-0.2396,-0.2394,-0.2395,-0.2395,-0.2395,-0.2392,-0.2392,-0.2392,-0.2392,0,-0.2331,-0.2334,-0.2337,-0.2342,-0.2345,-0.2348,-0.2353,-0.2354,-0.2361,-0.2363,-0.2367,-0.2369,-0.2375,-0.2378,-0.2383,-0.2386,-0.239,-0.2391,-0.2391,-0.2389,-0.2387,-0.2388,-0.2396,-0.2391,-0.2391,-0.2391,-0.2391,-0.2391,-0.2326,-0.2327,-0.2332,-0.2336,-0.234,-0.2343,-0.2345,-0.235,-0.2353,-0.2358,-0.2361,-0.2364,-0.2369,-0.2376,-0.2379,-0.2381,-0.2383,-0.2383,-0.2383,-0.2383,-0.2382,-0.2386,-0.2382,-0.2382,-0.2382,-0.2382,-0.2382,0,-0.232,-0.2323,-0.2327,-0.2332,-0.2335,-0.2339,-0.2343,-0.2345,-0.2348,-0.2353,-0.2356,-0.236,-0.2363,-0.2369,-0.2373,-0.2373,-0.2375,-0.2374,-0.2374,-0.2375,-0.238,-0.238,-0.2373,-0.2373,-0.2373,-0.2373,-0.2373,-0.2373,-0.2317,-0.2319,-0.2323,-0.2327,-0.2331,-0.2334,-0.2336,-0.234,-0.2343,-0.2347,-0.235,-0.2354,-0.2358,-0.2363,-0.2366,-0.2367,-0.2368,-0.2367,-0.2369,-0.2374,-0.2374,-0.2375,-0.2375,-0.2367,-0.2367,-0.2363,-0.2363,-0.2363]},{"header":{"parameterUnit":"m.s-1","parameterCategory":1,"la1":30.2991,"la2":30.254,"lo1":-89.0895,"lo2":-89.0444,"dy":0.0017,"dx":0.0017,"nx":28,"ny":28,"refTime":"2025-11-13T03:00:00:Z","depth":0,"parameterNumber":3,"parameterNumberName":"V-component_of_WINDS"},"data":[0,0,0,0,0,0,0,0,0,0,0,0,0,0,0,0,0,0,0,0,0,0,0,0,0,0,0,0,0,0,0,0,0,0,0,0,0,0,0,0,0,0,0,0,0,0,0,0,0,0,0,0,0,0,0,0,0,0,-0.9987,-0.9989,0,-1.0126,-1.0128,-1.013,-1.0185,-1.0185,-1.0185,-1.0184,-1.0327,-1.0331,-1.0336,0,0,0,0,0,0,0,0,0,0,0,0,0,-0.9771,-0.9775,-0.9987,-0.9989,-0.9991,-1.0126,-1.0128,-1.013,-1.0185,-1.0185,-1.0184,-1.0184,-1.0326,-1.0331,-1.0336,0,0,0,0,0,0,0,0,0,0,0,0,0,-0.9883,-0.9776,-0.9987,-1.0035,-1.004,-1.0126,-1.0128,-1.013,-1.0185,-1.0185,-1.0184,-1.0184,-1.0324,-1.033,-1.0337,-1.0385,0,0,-1.0356,-1.0358,0,0,0,0,0,0,0,0,-0.9877,-0.9891,-1.0026,-1.0032,-1.0038,-1.0138,-1.0104,-1.0216,-1.0186,-1.013,-1.0184,-1.0184,-1.0265,-1.0276,-1.0303,-1.0392,-1.0398,-1.0356,-1.036,-1.0362,-1.0364,0,0,0,0,0,0,0,-0.9869,-0.9885,-1.0042,-1.0028,-1.0035,-1.005,-1.0065,-1.0126,-1.0199,-1.0135,-1.0139,-1.0155,-1.0268,-1.0297,-1.0307,-1.04,-1.0356,-1.0361,-1.0365,-1.0368,-1.0537,-1.0538,0,0,0,0,0,0,-0.9853,-0.9879,-1.0038,-1.0047,-0.9954,-1.0054,-1.0071,-1.0106,-1.0198,-1.0212,-1.0155,-1.0157,-1.0287,-1.03,-1.0312,-1.0376,-1.0362,-1.0368,-1.0372,-1.0536,-1.0537,-1.0538,0,0,0,0,0,0,-0.9848,-0.9867,-1.0032,-0.9964,-0.9986,-1.0058,-1.0097,-1.0109,-1.0139,-1.0214,-1.0227,-1.0172,-1.0287,-1.0303,-1.0367,-1.0382,-1.0371,-1.0377,-1.0535,-1.0536,-1.0537,-1.0503,0,0,0,0,0,0,-0.9842,-0.9865,-0.9884,-0.9964,-0.9989,-1.0084,-1.0098,-1.0113,-1.0149,-1.0153,-1.0232,-1.0245,-1.0288,-1.0357,-1.0373,-1.039,-1.0382,-1.0534,-1.0536,-1.0537,-1.0503,-1.0503,-1.0503,0,0,0,0,0,-0.9834,-0.9868,-0.9884,-0.9903,-1.0014,-1.0085,-1.01,-1.0148,-1.015,-1.017,-1.0218,-1.0243,-1.0377,-1.0363,-1.0381,-1.0401,-1.0533,-1.0535,-1.0537,-1.0504,-1.0503,-1.0503,0,0,0,0,0,0,-0.9788,-0.988,-0.9898,-0.996,-1.0014,-1.0094,-1.0121,-1.0146,-1.0201,-1.0202,-1.026,-1.0277,-1.0336,-1.0375,-1.0357,-1.0453,-1.0457,-1.0463,-1.0426,-1.0426,-1.0426,-1.0416,-1.0387,0,0,0,0,0,-0.9785,-0.9834,-0.9912,-0.9959,-0.9985,-1.0048,-1.008,-1.0113,-1.0172,-1.0195,-1.0248,-1.0304,-1.036,-1.0395,-1.045,-1.0509,-1.0528,-1.0531,-1.0531,-1.053,-1.0535,-1.057,-1.0573,-1.0544,-1.0544,-1.0543,0,0,-0.978,-0.9836,-0.9863,-0.9951,-0.9997,-1.0047,-1.0067,-1.0119,-1.0157,-1.0203,-1.0266,-1.0307,-1.0374,-1.0436,-1.0465,-1.047,-1.0547,-1.0533,-1.0532,-1.0536,-1.0572,-1.0575,-1.0577,-1.0545,-1.0545,-1.0544,0,0,-0.9796,-0.9842,-0.9887,-0.9933,-1.0002,-1.0044,-1.0054,-1.0131,-1.016,-1.0224,-1.026,-1.0306,-1.0399,-1.0446,-1.0482,-1.0515,-1.054,-1.0532,-1.0531,-1.0564,-1.0567,-1.0569,-1.0582,-1.0586,-1.0536,-1.0535,-1.0535,0,-0.978,-0.9857,-0.9907,-0.9958,-0.9995,-1.0039,-1.0085,-1.0127,-1.021,-1.0236,-1.0239,-1.0358,-1.0406,-1.048,-1.0488,-1.0515,-1.053,-1.0523,-1.0562,-1.0565,-1.0568,-1.0581,-1.0586,-1.0534,-1.0534,-1.0534,-1.0535,0,-0.9835,-0.9888,-0.9916,-0.9995,-1.0036,-1.0084,-1.0142,-1.0177,-1.0206,-1.0247,-1.0313,-1.0372,-1.044,-1.0459,-1.0488,-1.0538,-1.0538,-1.0551,-1.0557,-1.0569,-1.0582,-1.0587,-1.0532,-1.0533,-1.0533,-1.0533,0,0,-0.9827,-0.9933,-0.9943,-0.998,-1.006,-1.0102,-1.0152,-1.0218,-1.0248,-1.0304,-1.0348,-1.0426,-1.0439,-1.048,-1.0514,-1.0543,-1.0567,-1.0553,-1.0555,-1.0554,-1.0627,-1.0617,-1.0622,-1.0584,-1.0585,-1.0586,-1.0621,0,-0.9854,-0.9946,-0.9992,-1.0064,-1.0114,-1.0156,-1.0199,-1.0253,-1.0293,-1.0342,-1.0386,-1.0441,-1.0453,-1.0478,-1.0509,-1.0558,-1.0583,-1.0556,-1.0626,-1.0628,-1.0609,-1.0629,-1.0619,-1.065,-1.0627,-1.0628,-1.0628,0,-0.9899,-0.9954,-1.0031,-1.0105,-1.0128,-1.0166,-1.0231,-1.0277,-1.0339,-1.0366,-1.0412,-1.0445,-1.05,-1.0501,-1.0578,-1.0559,-1.059,-1.0618,-1.0621,-1.063,-1.063,-1.064,-1.0661,-1.0666,-1.0637,-1.0636,-1.0636,0,-0.9886,-0.998,-1.0038,-1.0069,-1.0157,-1.0183,-1.0221,-1.0282,-1.032,-1.0376,-1.0401,-1.0463,-1.0498,-1.0545,-1.0595,-1.0591,-1.0668,-1.0672,-1.0693,-1.0692,-1.0708,-1.0706,-1.0735,-1.0726,-1.0726,-1.0726,-1.0726,0,-0.9912,-0.9958,-1.0034,-1.007,-1.0122,-1.0175,-1.0226,-1.0267,-1.0322,-1.0367,-1.0407,-1.0448,-1.0511,-1.056,-1.06,-1.0658,-1.0673,-1.0697,-1.0707,-1.0694,-1.0691,-1.0717,-1.0716,-1.0727,-1.0727,-1.0727,-1.0727,0,-0.9908,-0.996,-1.0027,-1.0105,-1.0125,-1.016,-1.0228,-1.0264,-1.0306,-1.0363,-1.0379,-1.0445,-1.0506,-1.056,-1.064,-1.0666,-1.0726,-1.0738,-1.0705,-1.0711,-1.0729,-1.0727,-1.0776,-1.0785,-1.0768,-1.0768,-1.0768,0,-0.9921,-0.9957,-1.0039,-1.0072,-1.0109,-1.0162,-1.02,-1.0254,-1.0292,-1.0365,-1.0394,-1.0457,-1.051,-1.0605,-1.0661,-1.0722,-1.0737,-1.075,-1.0746,-1.0733,-1.0739,-1.0736,-1.0741,-1.075,-1.075,-1.0749,-1.0749,0,-0.9941,-0.9965,-1.0018,-1.0081,-1.0125,-1.0177,-1.023,-1.0255,-1.0319,-1.036,-1.0422,-1.0463,-1.0545,-1.0608,-1.0676,-1.0716,-1.0744,-1.075,-1.0758,-1.0746,-1.0726,-1.0738,-1.0706,-1.0749,-1.0749,-1.0749,-1.0749,-1.0749,-0.9947,-0.9981,-1.0044,-1.0102,-1.0148,-1.0197,-1.0235,-1.0282,-1.0335,-1.0406,-1.0434,-1.0497,-1.056,-1.0654,-1.0693,-1.0744,-1.0749,-1.0761,-1.0764,-1.0766,-1.0764,-1.0716,-1.0756,-1.0757,-1.0757,-1.0757,-1.0757,0,-0.9969,-1.0012,-1.0065,-1.0138,-1.0184,-1.0205,-1.0265,-1.0302,-1.0358,-1.0413,-1.0465,-1.0537,-1.0598,-1.0658,-1.0723,-1.0752,-1.0766,-1.0767,-1.0766,-1.0775,-1.0756,-1.0743,-1.0754,-1.0754,-1.0754,-1.0754,-1.0754,-1.0754,-0.9987,-1.0046,-1.0078,-1.016,-1.0203,-1.0265,-1.0298,-1.0344,-1.0388,-1.0466,-1.0517,-1.0556,-1.0614,-1.0683,-1.074,-1.0756,-1.0778,-1.0776,-1.0796,-1.0777,-1.0776,-1.0776,-1.0764,-1.078,-1.078,-1.0811,-1.0811,-1.0811]}]]